sat.trackr.live / text

‹ back to catalog

HULIANWANG DIGUI-15

NORAD 62975 · 2025-030E

PAYLOAD ACTIVE UNKNOWN

§ Identity

Operator
Country
PRC
Launch date
2025-02-11
Launch site
WSC
Launch vehicle
Mass (kg)
RCS (m²)

External: N2YO · Heavens-Above · Gunter

§ Orbital elements

Epoch: 2026-09-22T21:02:29.588640Z

Period
108.33 min
Inclination
50.0017°
Eccentricity
0.0000456
Mean motion
13.29327530 rev/d
Perigee alt
1,149.0 km
Apogee alt
1,149.6 km
Semi-major
7,527.4 km
B*
5.7372e-5
RAAN
245.3752°
Arg perigee
48.9096°
Mean anomaly
311.1816°
Rev number
7,885

§ Raw data

HULIANWANG DIGUI-151 62975U 25030E   26265.87673135 -.00000097  00000+0  57372-4 0  99942 62975  50.0017 245.3752 0000456  48.9096 311.1816 13.29327530 78857

JSON: /api/v1/satellites/62975 · /tle

For live sub-satellite position, see the globe view (requires WebGL).

§ Visibility from observer

Set your observer location to see the next 7 days of passes ≥ 10°. The values pass through the URL so the page stays shareable.

No JS? Fill the form by hand. The geolocation button needs JavaScript.